Bournemouth, United Kingdom

9:42 AM BST on August 19, 2017 (GMT +0100)
Bournemouth

Weather History for EGHH - August, 2014

Change the Weather History Date:

Friday, August 15, 2014

  Actual Average Record
Temperature  
Mean Temperature 58 °F -  
Max Temperature 69 °F 68 °F 78 °F (2002)
Min Temperature 48 °F 50 °F 41 °F (2008)
Degree Days  
Heating Degree Days 6    
Growing Degree Days 8 (Base 50)    
Moisture  
Dew Point 50 °F    
Average Humidity 70    
Maximum Humidity 94    
Minimum Humidity 38    
Precipitation  
Precipitation 0.00 in 0.08 in - ()
Sea Level Pressure  
Sea Level Pressure 30.03 in    
Wind  
Wind Speed 8 mph ()    
Max Wind Speed 13 mph    
Max Gust Speed -    
Visibility 8.9 miles    
Events      
Averages and records for this station are not official NWS values.
T = Trace of Precipitation, MM = Missing Value Source: Averaged Metar Reports

Daily Weather History Graph

Daily Weather History Graph

Search for Another Location

Airport or City:

Trip Planner

Search our weather history database for the weather conditions in past years. The results will help you decide how hot, cold, wet, or windy it might be!

Date:

Astronomy

Aug. 15, 2014 Rise Set
Actual Time 5:54 AM BST 8:27 PM BST
Civil Twilight 5:17 AM BST 9:04 PM BST
Nautical Twilight 4:30 AM BST 9:51 PM BST
Astronomical Twilight 3:34 AM BST 10:46 PM BST
Moon 10:38 PM BST (8/15) 12:01 PM BST (8/15)
Length of Visible Light 15h 46m
Length of Day
14h 33m
Waning Gibbous, 71% of the Moon is Illuminated
Aug 15
Waning Gibbous
Aug 17
Last Quarter
Aug 25
New
Sep 2
First Quarter
Sep 9
Full

Hourly Weather History & Observations

Time (BST) Temp. Dew Point Humidity Pressure Visibility Wind Dir Wind Speed Gust Speed Precip Events Conditions
12:00 AM 55 °F 53 °F 88% 29.90 in 17 mi NW 5.8 mph - -   Mostly Cloudy
12:50 AM 51.8 °F 50.0 °F 94% 29.89 in 6.2 mi NW 6.9 mph - N/A   Partly Cloudy
1:00 AM 52 °F 50 °F 90% 29.91 in 12 mi NW 6.9 mph - -  
1:20 AM 53.6 °F 51.8 °F 94% 29.92 in 6.2 mi NW 6.9 mph - N/A   Partly Cloudy
1:50 AM 53.6 °F 51.8 °F 94% 29.92 in 6.2 mi WNW 8.1 mph - N/A   Partly Cloudy
2:00 AM 53 °F 52 °F 94% 29.93 in 11 mi WNW 8.1 mph - -  
2:20 AM 53.6 °F 51.8 °F 94% 29.92 in 6.2 mi WNW 10.4 mph - N/A   Partly Cloudy
2:50 AM 51.8 °F 50.0 °F 94% 29.92 in - NW 8.1 mph - N/A   Clear
3:00 AM 52 °F 50 °F 89% 29.94 in 11 mi NW 6.9 mph - -  
4:00 AM 51 °F 49 °F 92% 29.95 in 12 mi NW 8.1 mph - -  
4:50 AM 50.0 °F 48.2 °F 94% 29.95 in - NW 6.9 mph - N/A   Clear
5:00 AM 50 °F 48 °F 91% 29.96 in 7 mi NW 6.9 mph - -  
5:20 AM 50.0 °F 48.2 °F 94% 29.95 in - NW 8.1 mph - N/A   Clear
5:50 AM 50.0 °F 48.2 °F 94% 29.95 in - NW 5.8 mph - N/A   Clear
6:00 AM 50 °F 48 °F 89% 29.96 in 8 mi NW 5.8 mph - -  
6:20 AM 48.2 °F 46.4 °F 93% 29.95 in - NW 4.6 mph - N/A   Clear
6:50 AM 51.8 °F 50.0 °F 94% 29.98 in - NW 5.8 mph - N/A   Clear
7:00 AM 51 °F 50 °F 93% 29.98 in 8 mi NW 5.8 mph - -  
7:20 AM 53.6 °F 50.0 °F 88% 29.98 in - NW 5.8 mph - N/A   Clear
7:50 AM 55.4 °F 51.8 °F 88% 29.98 in - NNW 8.1 mph - N/A   Clear
8:00 AM 55 °F 51 °F 81% 30.00 in 11 mi NNW 8.1 mph - -  
8:20 AM 57.2 °F 51.8 °F 82% 30.01 in - NNW 8.1 mph - N/A   Clear
8:50 AM 59.0 °F 50.0 °F 72% 30.01 in - NNW 10.4 mph - N/A   Clear
9:00 AM 58 °F 50 °F 68% 30.02 in 12 mi NNW 10.4 mph - -  
9:20 AM 60.8 °F 50.0 °F 68% 30.01 in - NNW 10.4 mph - N/A   Clear
9:50 AM 60.8 °F 50.0 °F 68% 30.01 in - North 11.5 mph - N/A   Clear
10:00 AM 62 °F 50 °F 55% 30.03 in 13 mi North 12.7 mph - -   Scattered Clouds
10:20 AM 62.6 °F 51.8 °F 68% 30.04 in - North 11.5 mph - N/A   Clear
10:50 AM 64.4 °F 51.8 °F 64% 30.04 in 6.2 mi NNW 10.4 mph - N/A   Partly Cloudy
11:00 AM 64 °F 51 °F 53% 30.04 in 14 mi NNW 11.5 mph - -  
11:20 AM 64.4 °F 50.0 °F 59% 30.04 in 6.2 mi NNW 11.5 mph - N/A   Partly Cloudy
11:50 AM 64.4 °F 50.0 °F 59% 30.04 in 6.2 mi NNW 12.7 mph - N/A   Partly Cloudy
12:00 PM 64 °F 50 °F 51% 30.05 in 16 mi North 12.7 mph - -   Partly Cloudy
12:20 PM 64.4 °F 50.0 °F 59% 30.04 in 6.2 mi NNW 10.4 mph - N/A   Partly Cloudy
12:50 PM 64.4 °F 50.0 °F 59% 30.04 in 6.2 mi North 8.1 mph - N/A   Scattered Clouds
1:00 PM 65 °F 50 °F 48% 30.06 in 14 mi North 8.1 mph - -   Scattered Clouds
1:20 PM 66.2 °F 48.2 °F 52% 30.06 in 6.2 mi North 10.4 mph - N/A   Scattered Clouds
1:50 PM 66.2 °F 48.2 °F 52% 30.06 in 6.2 mi NNW 10.4 mph - N/A   Partly Cloudy
2:00 PM 68 °F 51 °F 43% 30.06 in 14 mi NNW 10.4 mph - -   Scattered Clouds
2:20 PM 64.4 °F 48.2 °F 56% 30.06 in 6.2 mi North 9.2 mph - N/A   Scattered Clouds
2:50 PM 66.2 °F 51.8 °F 60% 30.06 in 6.2 mi North 11.5 mph - N/A   Scattered Clouds
3:00 PM 66 °F 51 °F 49% 30.07 in 14 mi North 11.5 mph - -   Scattered Clouds
3:20 PM 66.2 °F 51.8 °F 60% 30.06 in 6.2 mi North 10.4 mph - N/A   Scattered Clouds
3:50 PM 68.0 °F 51.8 °F 56% 30.06 in 6.2 mi North 11.5 mph - N/A   Scattered Clouds
4:00 PM 67 °F 50 °F 44% 30.07 in 12 mi North 10.4 mph - -   Scattered Clouds
4:20 PM 66.2 °F 50.0 °F 56% 30.06 in 6.2 mi NNW 8.1 mph - N/A   Scattered Clouds
4:50 PM 66.2 °F 50.0 °F 56% 30.06 in 6.2 mi North 8.1 mph - N/A   Scattered Clouds
5:00 PM 67 °F 50 °F 44% 30.08 in 13 mi North 9.2 mph - -   Scattered Clouds
5:20 PM 68.0 °F 50.0 °F 52% 30.06 in 6.2 mi NNW 8.1 mph - N/A   Partly Cloudy
5:50 PM 68.0 °F 48.2 °F 49% 30.06 in 6.2 mi NNW 10.4 mph - N/A   Scattered Clouds
6:00 PM 69 °F 49 °F 38% 30.08 in 15 mi NNW 10.4 mph - -   Mostly Cloudy
6:20 PM 69.8 °F 50.0 °F 49% 30.06 in 6.2 mi NW 9.2 mph - N/A   Scattered Clouds
6:50 PM 68.0 °F 50.0 °F 52% 30.09 in 6.2 mi NW 8.1 mph - N/A   Scattered Clouds
7:00 PM 68 °F 50 °F 42% 30.09 in 12 mi NW 9.2 mph - -   Mostly Cloudy
7:20 PM 66.2 °F 51.8 °F 60% 30.09 in 6.2 mi NW 12.7 mph - N/A   Partly Cloudy
7:50 PM 64.4 °F 51.8 °F 64% 30.09 in 6.2 mi NW 11.5 mph - N/A   Partly Cloudy
8:00 PM 64 °F 52 °F 56% 30.12 in 13 mi NW 11.5 mph - -   Scattered Clouds
8:20 PM 62.6 °F 51.8 °F 68% 30.09 in 6.2 mi NW 8.1 mph - N/A   Partly Cloudy
8:50 PM 60.8 °F 51.8 °F 72% 30.12 in 6.2 mi NW 8.1 mph - N/A   Partly Cloudy
9:00 PM 61 °F 52 °F 65% 30.13 in 11 mi NW 8.1 mph - -   Scattered Clouds
9:20 PM 59.0 °F 51.8 °F 77% 30.12 in 6.2 mi NNW 8.1 mph - N/A   Partly Cloudy
9:50 PM 59.0 °F 53.6 °F 82% 30.15 in 6.2 mi NNW 5.8 mph - N/A   Partly Cloudy
10:00 PM 60 °F 53 °F 71% 30.15 in 10 mi NNW 5.8 mph - -   Mostly Cloudy
10:20 PM 57.2 °F 51.8 °F 82% 30.15 in 6.2 mi NW 4.6 mph - N/A   Partly Cloudy
10:50 PM 57.2 °F 51.8 °F 82% 30.15 in - NW 2.3 mph - N/A   Clear
11:00 PM 57 °F 52 °F 78% 30.16 in 9 mi WSW 1.2 mph - -   Scattered Clouds
11:20 PM 57.2 °F 51.8 °F 82% 30.15 in - WNW 2.3 mph - N/A   Clear
11:50 PM 53.6 °F 50.0 °F 88% 30.15 in - WNW 2.3 mph - N/A   Clear